Location: *
(47.6569°N, 7.4256°E)
Time: 10:28:34
(UTC+00:00)

USA 229 - Pass Details

Date: 14 December 2019
Orbit: 994 x 1218 km, 63.4° (Epoch: 19 January)

Event Time Altitude Azimuth Distance (km) Brightness Sun altitude
Rises 18:40:05 0° 318° (NW) 3,949 7.2 -29.4°
Reaches altitude 10° 18:42:44 10° 316° (NW) 3,019 6.5 -29.8°
Maximum altitude 18:49:54 67° 236° (SW) 1,264 4.1 -31.0°
Enters shadow 18:52:35 41° 170° (S) 1,644 4.5 -31.5°
